[[{"header":{"parameterUnit":"m.s-1","parameterCategory":1,"la1":30.2991,"la2":30.254,"lo1":-89.0895,"lo2":-89.0444,"dy":0.0017,"dx":0.0017,"nx":28,"ny":28,"refTime":"2023-08-18T09:00:00:Z","depth":0,"parameterNumber":2,"parameterNumberName":"U-component_of_WINDS"},"data":[0,0,0,0,0,0,0,0,0,0,0,0,0,0,0,0,0,0,0,0,0,0,0,0,0,0,0,0,0,0,0,0,0,0,0,0,0,0,0,0,0,0,0,0,0,0,0,0,0,0,0,0,0,0,0,0,0,0,1.1055,1.1056,0,1.1166,1.1167,1.1168,1.1217,1.1217,1.1217,1.1217,1.1333,1.1336,1.134,0,0,0,0,0,0,0,0,0,0,0,0,0,1.0888,1.0891,1.1055,1.1056,1.1058,1.1166,1.1167,1.1169,1.1217,1.1217,1.1217,1.1217,1.1332,1.1336,1.134,0,0,0,0,0,0,0,0,0,0,0,0,0,1.0976,1.0892,1.1055,1.1095,1.11,1.1165,1.1167,1.1169,1.1217,1.1217,1.1217,1.1217,1.1331,1.1336,1.134,1.1375,0,0,1.1355,1.1357,0,0,0,0,0,0,0,0,1.0971,1.0982,1.1088,1.1092,1.1098,1.1178,1.1151,1.1238,1.1218,1.1173,1.1217,1.1217,1.1282,1.1291,1.1312,1.1381,1.1386,1.1356,1.1359,1.1361,1.1362,0,0,0,0,0,0,0,1.0965,1.0977,1.1099,1.1089,1.1095,1.1108,1.1121,1.1168,1.1227,1.1177,1.118,1.1193,1.1284,1.1307,1.1315,1.1387,1.1356,1.136,1.1363,1.1365,1.1491,1.1491,0,0,0,0,0,0,1.0951,1.0972,1.1095,1.1102,1.1032,1.1111,1.1125,1.1152,1.1227,1.1238,1.1193,1.1195,1.1299,1.1309,1.1319,1.1366,1.1361,1.1365,1.1368,1.149,1.1491,1.1491,0,0,0,0,0,0,1.0948,1.0962,1.1091,1.1038,1.1056,1.1115,1.1145,1.1155,1.1177,1.1239,1.125,1.1205,1.1299,1.1313,1.1361,1.137,1.1367,1.1372,1.149,1.149,1.1491,1.1457,0,0,0,0,0,0,1.0943,1.096,1.0974,1.1038,1.1058,1.113,1.1145,1.1157,1.1185,1.1189,1.1254,1.1264,1.13,1.1353,1.1366,1.1377,1.1376,1.1489,1.149,1.1491,1.1458,1.1457,1.1456,0,0,0,0,0,1.0937,1.096,1.0974,1.0989,1.1076,1.113,1.1142,1.1182,1.1186,1.12,1.124,1.1262,1.1367,1.1358,1.1372,1.1385,1.1489,1.149,1.1491,1.1459,1.1457,1.1456,0,0,0,0,0,0,1.0896,1.0969,1.0986,1.1031,1.1074,1.1138,1.1157,1.1179,1.1223,1.1224,1.1273,1.1287,1.1331,1.1363,1.1352,1.1423,1.143,1.1434,1.14,1.14,1.1399,1.139,1.138,0,0,0,0,0,1.0892,1.0929,1.0992,1.1026,1.1046,1.1098,1.1123,1.115,1.1197,1.1216,1.1259,1.1305,1.1348,1.1376,1.1419,1.1463,1.1478,1.1479,1.1478,1.1476,1.1479,1.1505,1.1506,1.1494,1.1494,1.1494,0,0,1.0885,1.093,1.095,1.1019,1.1055,1.1093,1.1113,1.1153,1.1182,1.1222,1.127,1.1304,1.1358,1.1404,1.1426,1.1432,1.1486,1.1478,1.1476,1.148,1.1506,1.1507,1.1508,1.1495,1.1495,1.1495,0,0,1.0891,1.0929,1.0961,1.0997,1.1052,1.1086,1.1094,1.1155,1.1179,1.1227,1.1259,1.1295,1.1368,1.1405,1.1434,1.1454,1.1476,1.1467,1.1461,1.1486,1.1487,1.1488,1.1496,1.1498,1.1469,1.1469,1.1469,0,1.0876,1.0934,1.0975,1.1013,1.1042,1.108,1.1114,1.1147,1.1213,1.1233,1.1238,1.1331,1.137,1.1425,1.143,1.1452,1.1463,1.146,1.1483,1.1485,1.1487,1.1494,1.1497,1.1468,1.1468,1.1468,1.1468,0,1.0912,1.0952,1.0971,1.1034,1.1065,1.1101,1.1148,1.1176,1.12,1.1234,1.1283,1.1331,1.1385,1.14,1.1425,1.1459,1.1461,1.1474,1.1482,1.1486,1.1494,1.1497,1.1466,1.1466,1.1467,1.1467,0,0,1.0896,1.0981,1.0987,1.1016,1.1079,1.1111,1.1149,1.12,1.1223,1.1268,1.1301,1.1362,1.1374,1.1406,1.1436,1.1457,1.147,1.1468,1.147,1.1467,1.1512,1.1502,1.1505,1.1485,1.1486,1.1487,1.1508,0,1.0911,1.0979,1.1018,1.107,1.1108,1.1144,1.1177,1.1219,1.1252,1.1289,1.1326,1.1368,1.1381,1.1401,1.1424,1.1464,1.148,1.1463,1.1517,1.1519,1.1503,1.1509,1.1499,1.1516,1.1511,1.1512,1.1512,0,1.0938,1.0981,1.1037,1.1096,1.1114,1.1142,1.1193,1.1228,1.1277,1.1299,1.1335,1.1364,1.1406,1.141,1.1469,1.1456,1.148,1.1503,1.1505,1.1512,1.1516,1.1517,1.1523,1.1526,1.1518,1.1517,1.1517,0,1.0921,1.0994,1.1036,1.106,1.113,1.1149,1.1179,1.1229,1.1257,1.1302,1.1321,1.137,1.1397,1.1434,1.1476,1.1475,1.153,1.1538,1.1551,1.1549,1.1561,1.156,1.1571,1.1576,1.1576,1.1576,1.1576,0,1.0935,1.0967,1.103,1.1056,1.1094,1.1138,1.1175,1.1208,1.1252,1.1286,1.132,1.1351,1.1404,1.1442,1.1475,1.1519,1.1531,1.155,1.1559,1.1547,1.1545,1.1565,1.1565,1.1577,1.1576,1.1576,1.1576,0,1.0922,1.0965,1.1015,1.1077,1.1093,1.1118,1.1172,1.1199,1.1233,1.1276,1.1289,1.1343,1.1389,1.1434,1.1497,1.1519,1.1563,1.1574,1.1546,1.155,1.156,1.1559,1.1585,1.1591,1.1591,1.1591,1.1591,0,1.0928,1.0954,1.1019,1.1044,1.1073,1.1113,1.1142,1.1187,1.1216,1.1274,1.1294,1.1343,1.1385,1.1458,1.1503,1.1551,1.1564,1.157,1.1571,1.1559,1.1564,1.1562,1.1566,1.1569,1.1569,1.1568,1.1568,0,1.0934,1.0954,1.0994,1.1042,1.1076,1.1116,1.1158,1.1176,1.1229,1.126,1.1308,1.134,1.1403,1.1452,1.1505,1.1537,1.1562,1.1567,1.1573,1.1562,1.1545,1.1554,1.1543,1.1567,1.1567,1.1567,1.1567,1.1567,1.0932,1.0956,1.1006,1.105,1.1086,1.1123,1.1152,1.119,1.123,1.1285,1.1309,1.1357,1.1406,1.148,1.1512,1.155,1.1556,1.1564,1.1566,1.1568,1.1565,1.1538,1.156,1.156,1.156,1.1561,1.1561,0,1.0939,1.0973,1.1013,1.1069,1.1104,1.1123,1.117,1.1198,1.124,1.1283,1.1323,1.1378,1.1425,1.1474,1.1524,1.1545,1.1558,1.1557,1.1556,1.1563,1.1557,1.1547,1.1546,1.1546,1.1546,1.1546,1.1546,1.1546,1.0948,1.0991,1.1017,1.1078,1.1112,1.1159,1.1184,1.1219,1.1254,1.1313,1.1352,1.1383,1.1429,1.1483,1.1527,1.154,1.1557,1.1553,1.157,1.1563,1.1564,1.1565,1.1556,1.1556,1.1556,1.1573,1.1573,1.1573]},{"header":{"parameterUnit":"m.s-1","parameterCategory":1,"la1":30.2991,"la2":30.254,"lo1":-89.0895,"lo2":-89.0444,"dy":0.0017,"dx":0.0017,"nx":28,"ny":28,"refTime":"2023-08-18T09:00:00:Z","depth":0,"parameterNumber":3,"parameterNumberName":"V-component_of_WINDS"},"data":[0,0,0,0,0,0,0,0,0,0,0,0,0,0,0,0,0,0,0,0,0,0,0,0,0,0,0,0,0,0,0,0,0,0,0,0,0,0,0,0,0,0,0,0,0,0,0,0,0,0,0,0,0,0,0,0,0,0,4.177,4.177,0,4.1777,4.1777,4.1777,4.1767,4.1767,4.1767,4.1766,4.1772,4.1773,4.1773,0,0,0,0,0,0,0,0,0,0,0,0,0,4.1748,4.1748,4.177,4.177,4.177,4.1777,4.1777,4.1777,4.1767,4.1767,4.1767,4.1766,4.1772,4.1773,4.1773,0,0,0,0,0,0,0,0,0,0,0,0,0,4.1756,4.1748,4.177,4.1766,4.1766,4.1777,4.1777,4.1777,4.1767,4.1767,4.1766,4.1766,4.1772,4.1773,4.1773,4.1787,0,0,4.1775,4.1776,0,0,0,0,0,0,0,0,4.1756,4.1757,4.1767,4.1766,4.1766,4.1771,4.1771,4.178,4.1768,4.1767,4.1766,4.1766,4.1772,4.1773,4.1775,4.1788,4.1788,4.1775,4.1776,4.1776,4.1776,0,0,0,0,0,0,0,4.1755,4.1757,4.1772,4.1767,4.1766,4.1764,4.1764,4.1773,4.1772,4.1767,4.1766,4.1767,4.1772,4.1774,4.1775,4.1788,4.1775,4.1776,4.1776,4.1777,4.1812,4.1813,0,0,0,0,0,0,4.1755,4.1756,4.1772,4.1773,4.176,4.1765,4.1765,4.177,4.1772,4.1772,4.1768,4.1767,4.1773,4.1774,4.1775,4.1791,4.1776,4.1777,4.1777,4.1812,4.1812,4.1813,0,0,0,0,0,0,4.1755,4.1757,4.1772,4.1764,4.1766,4.1766,4.177,4.177,4.1773,4.1773,4.1772,4.177,4.1773,4.1774,4.1784,4.1791,4.1777,4.1778,4.1811,4.1812,4.1812,4.1824,0,0,0,0,0,0,4.1754,4.1757,4.1762,4.1765,4.1767,4.1781,4.1771,4.1771,4.1774,4.1773,4.1775,4.1775,4.1773,4.1783,4.1785,4.1792,4.1778,4.181,4.1811,4.1812,4.1823,4.1825,4.1827,0,0,0,0,0,4.1753,4.1765,4.1763,4.1765,4.1774,4.1782,4.1783,4.178,4.1775,4.178,4.178,4.1775,4.1791,4.1784,4.1786,4.1794,4.181,4.1811,4.1812,4.1822,4.1825,4.1827,0,0,0,0,0,0,4.1763,4.1765,4.1763,4.1775,4.1779,4.178,4.1787,4.1783,4.1788,4.1787,4.1783,4.1784,4.1794,4.1795,4.1788,4.1807,4.1799,4.1801,4.1806,4.1809,4.1811,4.181,4.1779,0,0,0,0,0,4.1767,4.1774,4.1775,4.1787,4.1788,4.1787,4.1791,4.1789,4.1792,4.1793,4.1793,4.1796,4.1802,4.1805,4.181,4.1823,4.1823,4.1829,4.1831,4.1833,4.1834,4.184,4.1843,4.1817,4.1817,4.1817,0,0,4.1775,4.1777,4.1781,4.1789,4.1791,4.1797,4.1789,4.1796,4.1801,4.1794,4.1803,4.1804,4.1807,4.1818,4.1823,4.1819,4.1842,4.1834,4.1836,4.1836,4.1842,4.1844,4.1847,4.1817,4.1817,4.1817,0,0,4.1792,4.1795,4.1804,4.1806,4.181,4.1809,4.1812,4.1814,4.1814,4.1824,4.1818,4.1824,4.1834,4.1836,4.1838,4.1856,4.1851,4.1858,4.1868,4.1874,4.1876,4.1878,4.1884,4.1886,4.1859,4.1859,4.1859,0,4.1801,4.1811,4.1809,4.1817,4.182,4.1815,4.1824,4.1826,4.1831,4.1833,4.1828,4.184,4.1842,4.1853,4.1858,4.186,4.1862,4.1857,4.1876,4.1878,4.188,4.1885,4.1887,4.186,4.186,4.186,4.186,0,4.1822,4.1829,4.1836,4.1841,4.1845,4.1854,4.1852,4.1857,4.1854,4.1854,4.1863,4.1865,4.187,4.1873,4.1871,4.1884,4.1882,4.1877,4.1868,4.1883,4.1888,4.189,4.1861,4.1861,4.1861,4.186,0,0,4.1845,4.1849,4.1851,4.1853,4.1857,4.1862,4.187,4.1876,4.1879,4.1883,4.1889,4.1897,4.1893,4.1896,4.1893,4.1899,4.1912,4.1893,4.1893,4.1896,4.1927,4.193,4.1932,4.191,4.191,4.1911,4.1926,0,4.1862,4.1876,4.1874,4.1887,4.1894,4.1889,4.1896,4.1898,4.1898,4.1903,4.1903,4.1909,4.1903,4.1904,4.191,4.191,4.1918,4.1909,4.1915,4.1915,4.1914,4.1935,4.1939,4.1953,4.1928,4.1929,4.1929,0,4.1883,4.1887,4.1901,4.1904,4.1906,4.1913,4.1917,4.1922,4.1925,4.1925,4.1928,4.1925,4.1932,4.1924,4.1935,4.1928,4.1931,4.1931,4.1931,4.1931,4.1922,4.1935,4.1958,4.196,4.1932,4.1932,4.1932,0,4.1897,4.1907,4.1917,4.1919,4.1922,4.1926,4.1928,4.193,4.1933,4.1937,4.1939,4.1944,4.1946,4.195,4.1948,4.1943,4.1958,4.1951,4.1958,4.1958,4.1961,4.1961,4.1984,4.1964,4.1964,4.1964,4.1964,0,4.1916,4.1924,4.1923,4.1929,4.1938,4.1936,4.1946,4.1946,4.1949,4.1954,4.195,4.1955,4.1953,4.1958,4.1956,4.1965,4.1966,4.1966,4.1965,4.1966,4.1966,4.1967,4.1965,4.1964,4.1964,4.1964,4.1964,0,4.1933,4.1933,4.1943,4.1945,4.1946,4.1953,4.1954,4.196,4.1959,4.1967,4.1968,4.1968,4.1973,4.1972,4.1978,4.1977,4.1988,4.1986,4.1987,4.1986,4.1993,4.1992,4.2018,4.2021,4.1999,4.1999,4.1999,0,4.1945,4.1951,4.1954,4.1958,4.196,4.1966,4.1969,4.1967,4.1971,4.1974,4.1979,4.1984,4.1988,4.1998,4.1998,4.2002,4.2,4.2009,4.2001,4.2001,4.2,4.1999,4.2,4.201,4.2011,4.2011,4.2011,0,4.1965,4.1964,4.1969,4.1975,4.1979,4.1983,4.1986,4.1989,4.1987,4.1992,4.1997,4.2001,4.2007,4.2012,4.2016,4.2017,4.2014,4.2014,4.2015,4.2016,4.2016,4.2015,4.199,4.2013,4.2013,4.2012,4.2012,4.2012,4.1979,4.1985,4.1988,4.1993,4.1996,4.1999,4.2004,4.2005,4.201,4.2015,4.2013,4.202,4.2022,4.2028,4.2029,4.2034,4.2031,4.2034,4.2034,4.2035,4.2035,4.2015,4.2035,4.2035,4.2035,4.2035,4.2035,0,4.1999,4.2,4.2006,4.2011,4.2015,4.2012,4.2015,4.2019,4.2025,4.2028,4.2032,4.2039,4.2044,4.2044,4.2049,4.2053,4.2051,4.2054,4.2053,4.2053,4.2038,4.2036,4.2055,4.2055,4.2055,4.2055,4.2055,4.2055,4.2009,4.2018,4.2018,4.2028,4.203,4.2036,4.2038,4.2041,4.2043,4.2051,4.2055,4.2056,4.2057,4.2062,4.2066,4.2066,4.2068,4.2072,4.2071,4.2057,4.2055,4.2053,4.205,4.2072,4.2072,4.2085,4.2086,4.2086]}]]